Location: Asheville, NC
(35.6000°N, 82.5500°W)
Time: 10:39:53
(UTC-04:00)

Iridium 28 - Visible Passes

Search period start: 19 June 2018 00:00
Search period end: 29 June 2018 00:00
Orbit: 771 x 775 km, 86.4° (Epoch: 18 June)

Date Brightness Start Highest point End Pass type
(mag) Time Alt. Az. Time Alt. Az. Time Alt. Az.
19 Jun 5.4 04:13:26 10° N 04:18:38 89° E 04:21:49 24° S visible
20 Jun 6.4 03:38:45 10° NNE 03:43:42 44° E 03:46:37 22° SE visible
20 Jun 7.1 05:20:34 10° NW 05:23:53 17° W 05:26:58 11° WSW visible
21 Jun 7.5 03:04:35 10° NNE 03:08:38 23° E 03:11:27 15° ESE visible
21 Jun 6.3 04:44:38 10° NNW 04:49:16 34° W 04:51:48 22° SW visible
22 Jun 8.1 02:31:54 10° ENE 02:33:25 11° ENE 02:34:55 10° E visible
22 Jun 5.5 04:09:22 10° N 04:14:30 68° W 04:16:38 35° SSW visible
23 Jun 5.9 03:34:29 10° N 03:39:38 60° E 03:41:30 37° SSE visible
23 Jun 7.4 05:17:25 10° NW 05:19:37 13° WNW 05:21:49 10° WSW visible
24 Jun 7.0 03:00:05 10° NNE 03:04:37 30° E 03:06:23 24° ESE visible
24 Jun 6.7 04:40:52 10° NNW 04:45:03 25° W 04:46:44 21° WSW visible
25 Jun 7.8 02:26:27 10° NE 02:29:28 15° ENE 02:31:17 13° E visible
25 Jun 5.8 04:05:21 10° NNW 04:10:22 50° W 04:11:38 41° SW visible
26 Jun 5.5 03:30:19 10° N 03:35:32 81° E 03:36:33 58° SSE visible
27 Jun 6.4 02:55:42 10° NNE 03:00:35 40° E 03:01:29 37° ESE visible
27 Jun 7.0 04:37:15 10° NW 04:40:49 19° W 04:41:50 18° W visible
28 Jun 7.4 02:21:38 10° NNE 02:25:30 21° E 02:26:26 20° E visible
28 Jun 6.1 04:01:26 10° NNW 04:06:11 37° W 04:06:47 36° WSW visible
